Time_in_sec,Mx,My,Mz
1312467429.52410913,0.13827294,0.50689882,-0.52202600
1312467429.57208037,0.13597250,0.50204641,-0.51983571
1312467429.62307644,0.13578683,0.50295013,-0.52052581
1312467429.67107964,0.13830853,0.50344783,-0.52186346
1312467429.72352457,0.13817199,0.50536269,-0.52161676
1312467429.77112007,0.13632324,0.50371176,-0.52063507
1312467429.82377481,0.13590302,0.50256991,-0.52091980
1312467429.87220693,0.13609381,0.50204790,-0.52009773
1312467429.92319965,0.13764574,0.50332344,-0.52149731
1312467429.97211170,0.13715817,0.50449055,-0.52261043
1312467430.02424812,0.13605602,0.50269294,-0.52064288
1312467430.07470489,0.13528416,0.50205439,-0.51987559
1312467430.12306690,0.13633311,0.50335199,-0.52278405
1312467430.17120051,0.13641393,0.50448453,-0.52130824
1312467430.22341418,0.13610995,0.50398302,-0.52186006
1312467430.27222943,0.13490392,0.50307345,-0.51923263
1312467430.32357597,0.13649537,0.50436616,-0.52224422
1312467430.37174940,0.13598981,0.50089502,-0.51969159
1312467430.42421293,0.13654856,0.50486618,-0.52130330
1312467430.47107506,0.13771804,0.50435483,-0.52244252
1312467430.52422261,0.13821486,0.50407887,-0.52106655
1312467430.57108283,0.13632523,0.50243580,-0.52075988
1312467430.62421799,0.13560924,0.50181133,-0.52133465
1312467430.67218351,0.13888893,0.50483894,-0.52116781
1312467430.72310853,0.13801487,0.50473017,-0.52202463
1312467430.77221060,0.13639036,0.50334102,-0.52183902
1312467430.82424355,0.13451201,0.50233358,-0.52126747
1312467430.87108397,0.13640164,0.50397664,-0.52157414
1312467430.92338967,0.13716635,0.50448900,-0.52247542
1312467430.97119927,0.13749915,0.50253659,-0.51948214
1312467431.02364683,0.13583145,0.50232852,-0.52213275
1312467431.07221103,0.13497278,0.50336492,-0.52259374
1312467431.12387967,0.13772108,0.50397158,-0.52243942
1312467431.17109799,0.13688380,0.50334555,-0.52275217
1312467431.22309399,0.13582332,0.50335056,-0.52214092
1312467431.27206516,0.13584058,0.50117874,-0.52212358
1312467431.32318807,0.13651145,0.50528073,-0.52413338
1312467431.37120342,0.13608028,0.50360602,-0.52239704
1312467431.42323494,0.13589078,0.50308251,-0.52105892
1312467431.47111583,0.13654642,0.50308079,-0.52155906
1312467431.52410007,0.13806811,0.50625074,-0.52095681
1312467431.57120323,0.13638353,0.50331753,-0.51968700
1312467431.62413478,0.13774991,0.50151759,-0.51999801
1312467431.67110586,0.13554595,0.50360930,-0.52215892
1312467431.72424126,0.13586225,0.50461870,-0.52134115
1312467431.77108145,0.13588384,0.50101811,-0.51916057
1312467431.82322216,0.13675052,0.50293887,-0.52047002
1312467431.87122178,0.13600081,0.50244838,-0.52158582
1312467431.92312217,0.13643548,0.50588357,-0.52077943
1312467431.97113371,0.13773479,0.50547493,-0.51975965
1312467432.02020860,0.13595310,0.50243276,-0.52010876
1312467432.07310009,0.13715975,0.50252736,-0.51829106
1312467432.12327504,0.13698716,0.50574940,-0.52074653
1312467432.17119694,0.13539538,0.50435400,-0.52002096
1312467432.22373104,0.13894816,0.50355196,-0.52034760
1312467432.27217555,0.13654122,0.50167859,-0.52181780
1312467432.32017541,0.13689095,0.50347173,-0.52261817
1312467432.37110305,0.13566959,0.50243753,-0.52025974
1312467432.42011428,0.13723691,0.50485820,-0.52126348
1312467432.47107649,0.13721435,0.50358689,-0.52179325
1312467432.52310538,0.13677172,0.50423521,-0.52222729
1312467432.57106447,0.13581340,0.50268990,-0.52011877
1312467432.62014580,0.13715439,0.50408387,-0.52045530
1312467432.67111993,0.13826494,0.50394171,-0.52025551
1312467432.72309303,0.13694623,0.50473678,-0.52154839
1312467432.77110720,0.13501699,0.50205606,-0.51975650
1312467432.82415676,0.13675599,0.50342333,-0.51805210
1312467432.87106919,0.13858014,0.50405842,-0.51956558
1312467432.92310667,0.13505563,0.50424194,-0.52111590
1312467432.97110748,0.13891280,0.50506473,-0.51847780
1312467433.02307868,0.13578373,0.50231290,-0.52065575
1312467433.07120061,0.13525860,0.50218683,-0.52028161
1312467433.12309933,0.13807002,0.50395423,-0.52120852
1312467433.17119765,0.13712980,0.50306809,-0.52098715
1312467433.22420311,0.13612218,0.50347042,-0.52172101
1312467433.27476478,0.13665165,0.50216770,-0.51993191
1312467433.32308364,0.13738754,0.50513399,-0.52327454
1312467433.37119675,0.13636199,0.50191849,-0.52021581
1312467433.42307615,0.13603251,0.50256991,-0.52104682
1312467433.47110009,0.13648348,0.50498146,-0.52009732
1312467433.52310586,0.13674217,0.50589913,-0.52251053
1312467433.57209182,0.13740131,0.50163764,-0.51894295
1312467433.62417793,0.13603668,0.50409985,-0.52078909
1312467433.67298222,0.13542256,0.50284278,-0.52202576
1312467433.72415018,0.13671070,0.50383943,-0.52101719
1312467433.77119756,0.13631083,0.50116295,-0.52115470
1312467433.82309198,0.13510942,0.50349104,-0.52258682
1312467433.87211990,0.13745308,0.50114226,-0.52041590
1312467433.92411852,0.13665035,0.50321317,-0.52209210
1312467433.97119904,0.13605292,0.50205576,-0.52077276
1312467434.02410054,0.13573495,0.50140452,-0.51930660
1312467434.07268476,0.13643661,0.50177664,-0.51899976
1312467434.12311673,0.13725439,0.50676823,-0.52073872
1312467434.17117119,0.13722083,0.50394356,-0.51937431
1312467434.22424054,0.13719720,0.50177956,-0.52003199
1312467434.27193904,0.13704447,0.50073880,-0.51814973
1312467434.32311773,0.13608474,0.50421822,-0.51998007
1312467434.37110662,0.13762188,0.50353360,-0.51733029
1312467434.42311502,0.13721366,0.50381738,-0.51950824
1312467434.47306800,0.13672131,0.50470555,-0.51846725
1312467434.52313709,0.13674280,0.50508416,-0.51806533
1312467434.57119727,0.13513047,0.50216186,-0.51786757
1312467434.62325358,0.13592073,0.50254178,-0.51836276
1312467434.66321731,0.13721773,0.50330639,-0.51950419
1312467434.72023916,0.13660873,0.50243104,-0.52060896
1312467434.77191710,0.13483877,0.50216824,-0.51815349
1312467434.82323694,0.13550057,0.50242043,-0.51852065
1312467434.87419844,0.13637327,0.50255418,-0.51995093
1312467434.92341137,0.13631710,0.50345784,-0.52076805
1312467434.97150159,0.13690867,0.50344360,-0.52006114
1312467435.02322030,0.13525353,0.50282562,-0.52028668
1312467435.07122183,0.13589410,0.50178152,-0.51889664
1312467435.12415934,0.13621119,0.50460142,-0.52011019
1312467435.17111349,0.13634259,0.50230491,-0.52048886
1312467435.22109413,0.13549520,0.50397694,-0.52068496
1312467435.27280521,0.13688949,0.50189179,-0.51830190
1312467435.32012296,0.13675131,0.50474936,-0.52250135
1312467435.37179160,0.13662305,0.50268340,-0.52034098
1312467435.42307258,0.13703297,0.50204140,-0.52044696
1312467435.47112107,0.13661364,0.50475097,-0.52250934
1312467435.52415633,0.13575424,0.50499731,-0.52081215
1312467435.57111311,0.13722269,0.50062662,-0.51975280
1312467435.62310004,0.13623047,0.50217408,-0.52009082
1312467435.67260575,0.13738365,0.50268632,-0.52137315
1312467435.72408080,0.13618456,0.50384116,-0.52064407
1312467435.77111936,0.13759290,0.50292611,-0.52015221
1312467435.82307768,0.13535753,0.50397855,-0.52069288
1312467435.87151670,0.13750942,0.50330001,-0.51921827
1312467435.92323899,0.13675655,0.50717199,-0.52211571
1312467435.97108316,0.13668008,0.50461066,-0.52142829
1312467436.02309394,0.13624372,0.50153369,-0.51995069
1312467436.07106805,0.13628432,0.50244361,-0.52143490
1312467436.12340140,0.13658917,0.50577611,-0.52278745
1312467436.17179298,0.13576022,0.50218982,-0.52105975
1312467436.22084117,0.13649160,0.50395942,-0.52008915
1312467436.27175856,0.13786924,0.50279516,-0.52013528
1312467436.32349491,0.13694014,0.50550330,-0.52155447
1312467436.37207389,0.13743807,0.50112039,-0.51839888
1312467436.42410469,0.13644354,0.50384104,-0.52089810
1312467436.47291017,0.13734891,0.50294805,-0.52191520
1312467436.52325749,0.13546045,0.50423872,-0.52122694
1312467436.57195377,0.13546892,0.50331938,-0.51893282
1312467436.62422633,0.13551584,0.50152457,-0.51837856
1312467436.67213488,0.13847925,0.50354272,-0.51902950
1312467436.72416306,0.13698813,0.50460118,-0.52087235
1312467436.77118826,0.13591865,0.50177681,-0.51849169
1312467436.82416391,0.13623893,0.50125474,-0.51779664
1312467436.87345552,0.13676587,0.50306350,-0.52020109
1312467436.92308521,0.13552380,0.50346118,-0.52027583
1312467436.97220659,0.13794494,0.50354600,-0.51879138
1312467437.02310205,0.13668059,0.50175470,-0.51723683
1312467437.07221842,0.13570365,0.50240630,-0.51743269
1312467437.12415028,0.13604002,0.50279880,-0.51862687
1312467437.17111349,0.13606122,0.50409514,-0.52038407
1312467437.22420430,0.13607177,0.50394082,-0.51796103
1312467437.27107382,0.13686500,0.50291693,-0.51858002
1312467437.32309461,0.13774195,0.50560111,-0.51962566
1312467437.37211418,0.13524191,0.50252324,-0.51598060
1312467437.42318583,0.13665718,0.50367260,-0.51738709
1312467437.47120714,0.13760756,0.50328124,-0.51759827
1312467437.52309036,0.13723657,0.50519145,-0.51669246
1312467437.57220984,0.13496962,0.50214320,-0.51599348
1312467437.62309504,0.13520311,0.50329602,-0.51652670
1312467437.67305517,0.13601480,0.50303400,-0.51674682
1312467437.72027493,0.13809320,0.50441056,-0.51623350
1312467437.77122092,0.13626178,0.50160831,-0.51510763
1312467437.82307863,0.13498288,0.50150281,-0.51585335
1312467437.87110066,0.13549368,0.50137651,-0.51649547
1312467437.92310429,0.13688345,0.50367880,-0.51818115
1312467437.97221303,0.13838586,0.50325596,-0.51607341
1312467438.02030110,0.13569891,0.50314778,-0.51515180
1312467438.07414389,0.13643830,0.50185436,-0.51442671
1312467438.12309623,0.13605168,0.50455767,-0.51594907
1312467438.17121816,0.13819845,0.50349748,-0.51460636
1312467438.22011614,0.13592666,0.50516993,-0.51340508
1312467438.27121949,0.13612546,0.50158489,-0.51282859
1312467438.32313919,0.13521068,0.50454545,-0.51397985
1312467438.37122083,0.13669971,0.50272202,-0.51226586
1312467438.42318916,0.13824351,0.50501961,-0.51367360
1312467438.47108197,0.13588396,0.50349504,-0.51204979
1312467438.52013302,0.13585909,0.50339699,-0.51474082
1312467438.57111406,0.13476406,0.50070512,-0.51276618
1312467438.62421203,0.13644479,0.50221109,-0.51200777
1312467438.67213273,0.13742252,0.50336993,-0.51384318
1312467438.72500181,0.13519630,0.50327259,-0.51437467
1312467438.77111197,0.13623251,0.50235450,-0.51323175
1312467438.82412553,0.13664043,0.50298852,-0.51321292
1312467438.87274051,0.13444084,0.50365138,-0.51321054
1312467438.92331362,0.13795581,0.50349444,-0.51408231
1312467438.97120833,0.13692813,0.50451362,-0.51280421
1312467439.02326560,0.13491204,0.50248736,-0.51236749
1312467439.07223248,0.13700573,0.50296807,-0.51171196
1312467439.12335443,0.13778274,0.50398833,-0.51234734
1312467439.17223334,0.13548116,0.50324279,-0.51193666
1312467439.22422576,0.13512534,0.50221616,-0.51114243
1312467439.27306557,0.13563095,0.50068766,-0.51204336
1312467439.32355547,0.13684019,0.50427538,-0.51428717
1312467439.37223101,0.13495491,0.50120354,-0.51181728
1312467439.42412734,0.13552481,0.50376946,-0.51341778
1312467439.47106886,0.13654777,0.50349170,-0.51241499
1312467439.52339602,0.13620301,0.50503898,-0.51338816
1312467439.57221270,0.13530791,0.50067520,-0.51058227
1312467439.62411475,0.13531986,0.50108039,-0.51260233
1312467439.67360306,0.13541162,0.50274587,-0.51314759
1312467439.72308397,0.13742454,0.50311446,-0.51384115
1312467439.77121544,0.13552098,0.50234222,-0.51138955
1312467439.82345653,0.13597758,0.50184357,-0.51297361
1312467439.87222099,0.13716179,0.50270778,-0.51143199
1312467439.92422605,0.13693489,0.50351661,-0.51508307
1312467439.97215676,0.13604340,0.50251830,-0.51633775
1312467440.02318621,0.13523199,0.50186259,-0.51395845
1312467440.07107496,0.13514818,0.50213373,-0.51531053
1312467440.12333989,0.13607109,0.50417131,-0.51567602
1312467440.17167711,0.13747124,0.50325781,-0.51531917
1312467440.22314692,0.13498981,0.50356722,-0.51775169
1312467440.27210617,0.13684386,0.50264114,-0.51669598
1312467440.32308555,0.13784516,0.50494355,-0.51800054
1312467440.37108541,0.13638309,0.50160986,-0.51536971
1312467440.42336822,0.13465752,0.50266367,-0.51655346
1312467440.47108340,0.13682784,0.50274700,-0.51467997
1312467440.52428293,0.13730396,0.50390291,-0.51573724
1312467440.57214546,0.13521969,0.50135469,-0.51422435
1312467440.62308645,0.13650373,0.50184184,-0.51334673
1312467440.67111039,0.13626972,0.50354499,-0.51700497
1312467440.72324276,0.13684088,0.50404489,-0.51657218
1312467440.77215338,0.13685741,0.50108302,-0.51439673
1312467440.82314229,0.13728067,0.50184160,-0.51410890
1312467440.87110353,0.13607605,0.50149155,-0.51592463
1312467440.92319965,0.13661043,0.50250876,-0.51603591
1312467440.97207546,0.13777421,0.50388712,-0.51476830
1312467441.02420998,0.13359226,0.50238973,-0.51378816
1312467441.07114053,0.13732150,0.50081331,-0.51356077
1312467441.12023044,0.13709788,0.50532079,-0.51670140
1312467441.17109394,0.13547547,0.50469655,-0.51638699
1312467441.22426057,0.13667281,0.50287950,-0.51495892
1312467441.27283788,0.13754067,0.50171381,-0.51436192
1312467441.32314324,0.13629945,0.50494242,-0.51634121
1312467441.37221098,0.13701357,0.50286376,-0.51386297
1312467441.42306805,0.13770570,0.50326246,-0.51597822
1312467441.47111797,0.13671753,0.50429887,-0.51631218
1312467441.52314258,0.13761410,0.50465840,-0.51505244
1312467441.57109594,0.13769373,0.50285727,-0.51395816
1312467441.62314391,0.13650857,0.50314128,-0.51537395
1312467441.67309642,0.13709196,0.50312859,-0.51480204
1312467441.72407937,0.13716833,0.50364900,-0.51574320
1312467441.77112317,0.13765691,0.50235409,-0.51462907
1312467441.82342982,0.13548285,0.50288451,-0.51422065
1312467441.87221265,0.13660766,0.50197428,-0.51387978
1312467441.92354703,0.13618281,0.50317889,-0.51848692
1312467441.97223234,0.13623318,0.50212401,-0.51551676
1312467442.02312040,0.13584465,0.50110364,-0.51526248
1312467442.07312989,0.13490927,0.50151694,-0.51706839
1312467442.12334037,0.13839172,0.50442767,-0.51809961
1312467442.17107677,0.13678160,0.50431132,-0.51751924
1312467442.22440481,0.13605474,0.50417441,-0.51594603
1312467442.27108097,0.13674404,0.50301814,-0.51603198
1312467442.32346964,0.13734524,0.50458229,-0.51950639
1312467442.37221694,0.13615134,0.50111920,-0.51699358
1312467442.42320037,0.13589039,0.50239527,-0.51661474
1312467442.47106719,0.13721706,0.50353688,-0.51721919
1312467442.52310157,0.13693258,0.50468987,-0.51724428
1312467442.57119918,0.13707927,0.50149751,-0.51748085
1312467442.62419224,0.13667174,0.50198674,-0.51508683
1312467442.67118669,0.13615106,0.50203693,-0.51915276
1312467442.72430444,0.13496731,0.50331640,-0.51815468
1312467442.77118826,0.13545889,0.50061780,-0.51716435
1312467442.82425857,0.13609213,0.50240618,-0.51781380
1312467442.87162519,0.13690308,0.50135416,-0.51587576
1312467442.92315841,0.13639680,0.50267720,-0.51954693
1312467442.97120118,0.13646938,0.50279087,-0.51833296
1312467443.02418900,0.13571076,0.50151199,-0.51742554
1312467443.07220554,0.13673683,0.50187147,-0.51629281
1312467443.12324882,0.13812625,0.50407106,-0.52026451
1312467443.17153788,0.13624108,0.50304019,-0.51754093
1312467443.22470284,0.13571803,0.50367916,-0.51703787
1312467443.27110386,0.13670823,0.50238723,-0.51670188
1312467443.32317567,0.13794392,0.50367379,-0.51879239
1312467443.37238121,0.13786271,0.50185394,-0.51582408
1312467443.42324829,0.13671099,0.50292170,-0.51885802
1312467443.47120333,0.13688441,0.50253057,-0.51830697
1312467443.52387357,0.13684392,0.50366157,-0.51656914
1312467443.57221460,0.13427316,0.50317323,-0.51604146
1312467443.62323833,0.13584442,0.50304186,-0.51729482
1312467443.67287731,0.13833477,0.50352091,-0.51688540
1312467443.72416520,0.13689575,0.50418669,-0.51791525
1312467443.77224493,0.13457884,0.50331652,-0.51777357
1312467443.82414532,0.13743441,0.50275463,-0.51599008
1312467443.87121391,0.13672559,0.50225633,-0.51643085
1312467443.92421007,0.13511214,0.50344104,-0.51801270
1312467443.97110152,0.13733007,0.50149900,-0.51786989
1312467444.02016068,0.13603516,0.50149935,-0.51659960
1312467444.07306242,0.13500302,0.50190639,-0.51773846
1312467444.12322903,0.13823877,0.50532514,-0.51824969
1312467444.17214108,0.13688955,0.50291222,-0.51817507
1312467444.22313356,0.13645923,0.50406843,-0.51834315
1312467444.27122688,0.13836235,0.50313294,-0.51647735
1312467444.32324624,0.13796648,0.50494504,-0.51826257
1312467444.37215233,0.13629521,0.50239205,-0.51672584
1312467444.42338729,0.13688244,0.50380653,-0.51818216
1312467444.47287750,0.13710590,0.50225776,-0.51694697
1312467444.52008057,0.13802542,0.50457585,-0.51960158
1312467444.57206893,0.13679688,0.50341547,-0.51737708
1312467444.62308383,0.13583314,0.50240624,-0.51755971
1312467444.67110205,0.13731079,0.50392634,-0.51788926
1312467444.72309017,0.13542803,0.50332725,-0.51960778
1312467444.77160740,0.13849883,0.50019765,-0.51685095
1312467444.82307744,0.13658245,0.50177348,-0.51885682
1312467444.87157679,0.13664691,0.50290918,-0.51765096
1312467444.92010641,0.13701870,0.50280946,-0.52058810
1312467444.97113109,0.13678221,0.50306034,-0.51993108
1312467445.02309537,0.13808176,0.50071347,-0.51687896
1312467445.07210398,0.13601881,0.50150251,-0.51686960
1312467445.12421417,0.13719720,0.50177956,-0.52003199
1312467445.17108560,0.13654168,0.50382227,-0.51927811
1312467445.22511458,0.13701594,0.50227499,-0.51843196
1312467445.27107906,0.13517915,0.50102925,-0.51947039
1312467445.32310295,0.13703099,0.50331736,-0.52032214
1312467445.37210846,0.13702095,0.50061572,-0.51855373
1312467445.42376804,0.13706782,0.50382054,-0.51965123
1312467445.47210598,0.13691577,0.50254929,-0.52005404
1312467445.52412534,0.13602574,0.50356692,-0.51876795
1312467445.57222509,0.13658285,0.50289673,-0.51644397
1312467445.62411714,0.13744524,0.50124657,-0.51826489
1312467445.67333245,0.13754822,0.50252724,-0.51867211
1312467445.72307920,0.13709845,0.50304931,-0.51924014
1312467445.77130914,0.13510898,0.50178331,-0.51826948
1312467445.82317972,0.13754806,0.49946579,-0.51905268
1312467445.87222910,0.13715975,0.50252736,-0.51829106
1312467445.92420888,0.13733809,0.50445610,-0.51964039
1312467445.97222614,0.13875961,0.50188023,-0.51913530
1312467446.02348113,0.13668227,0.50139642,-0.51952076
1312467446.07106996,0.13661116,0.50329870,-0.51819402
1312467446.12311292,0.13701910,0.50393271,-0.51817524
1312467446.17111707,0.13638341,0.50127661,-0.51994073
1312467446.22424793,0.13652526,0.50280493,-0.51967496
1312467446.27107620,0.13805531,0.50301462,-0.51703227
1312467446.32332969,0.13824171,0.50290090,-0.51850033
1312467446.37131190,0.13565859,0.50088418,-0.51836544
1312467446.42311978,0.13570264,0.50253403,-0.51743370
1312467446.47475934,0.13601746,0.50152755,-0.51915663
1312467446.52426791,0.13725354,0.50393730,-0.51883429
1312467446.57119632,0.13759966,0.50236505,-0.51557410
1312467446.62424493,0.13582180,0.50075012,-0.51795149
1312467446.67119741,0.13674782,0.50342488,-0.51818711
1312467446.72309995,0.13705067,0.50201321,-0.51788992
1312467446.77111411,0.13708243,0.50315517,-0.51722407
1312467446.82317638,0.13574730,0.50293291,-0.51891381
1312467446.87330532,0.13638072,0.50176263,-0.51765776
1312467446.92425156,0.13908204,0.50314367,-0.51818454
1312467446.97227716,0.13833234,0.50265318,-0.51930034
1312467447.02320051,0.13699980,0.50033993,-0.51666963
1312467447.07221866,0.13821536,0.50122291,-0.51687503
1312467447.12019086,0.13650282,0.50357461,-0.51995111
1312467447.17108369,0.13623255,0.50293905,-0.51996195
1312467447.22308826,0.13826798,0.50355840,-0.52025247
1312467447.27107167,0.13635279,0.50204784,-0.52035183
1312467447.32319236,0.13763379,0.50291830,-0.51947725
1312467447.37217379,0.13576354,0.50088882,-0.51889747
1312467447.42340422,0.13750124,0.50330156,-0.51935327
1312467447.47108316,0.13703923,0.50433630,-0.52006030
1312467447.52354980,0.13717678,0.50229371,-0.52030605
1312467447.57216001,0.13701288,0.50265825,-0.51843500
1312467447.62349439,0.13629584,0.50114107,-0.51913768
1312467447.67280984,0.13693206,0.50152570,-0.51991087
1312467447.72334576,0.13746035,0.50330943,-0.52002823
1312467447.77111840,0.13704859,0.50124824,-0.51801884
1312467447.82022452,0.13666801,0.50216454,-0.51966190
1312467447.87221932,0.13509668,0.50127542,-0.51853538
1312467447.92354417,0.13707086,0.50343728,-0.51964819
1312467447.97222710,0.13717583,0.50344193,-0.52018023
1312467448.02420282,0.13734615,0.50241357,-0.51975906
1312467448.07388306,0.13574521,0.50216794,-0.51904267
1312467448.12309337,0.13766034,0.50265807,-0.51907021
1312467448.17109394,0.13794386,0.50265330,-0.51891923
1312467448.21110654,0.13583387,0.50319624,-0.51971787
1312467448.27112055,0.13702106,0.50265670,-0.51830006
